TimeMST,TemperatureF,Dew PointF,Humidity,Sea Level PressureIn,VisibilityMPH,Wind Direction,Wind SpeedMPH,Gust SpeedMPH,PrecipitationIn,Events,Conditions,WindDirDegrees,DateUTC
12:07 AM,-11.2,-14.8,84,29.94,2.5,NNW,6.9,-,N/A,,Partly Cloudy,340,2013-01-01 07:07:00
12:11 AM,-9.4,-13.0,84,29.93,1.0,NNW,6.9,-,N/A,,Mist,340,2013-01-01 07:11:00
12:13 AM,-9.4,-11.2,92,29.93,0.5,North,5.8,-,N/A,Fog,Light Freezing Fog,350,2013-01-01 07:13:00
12:53 AM,-7.1,-9.0,91,30.25,0.5,North,6.9,-,N/A,Fog,Light Freezing Fog,360,2013-01-01 07:53:00
1:22 AM,-7.6,-9.4,92,29.94,1.0,NNE,3.5,-,N/A,,Mist,30,2013-01-01 08:22:00
1:27 AM,-5.8,-9.4,84,29.94,4.0,NNE,3.5,-,N/A,,Mostly Cloudy,30,2013-01-01 08:27:00
1:35 AM,-7.6,-9.4,92,29.95,10.0,Calm,Calm,-,N/A,,Scattered Clouds,0,2013-01-01 08:35:00
1:53 AM,-2.0,-5.1,87,30.23,10.0,East,4.6,-,N/A,,Clear,90,2013-01-01 08:53:00
2:53 AM,-5.1,-8.0,87,30.26,10.0,Calm,Calm,-,N/A,,Overcast,0,2013-01-01 09:53:00
3:53 AM,-2.0,-6.0,83,30.27,10.0,East,5.8,-,N/A,,Overcast,80,2013-01-01 10:53:00
4:53 AM,-2.9,-8.0,79,30.29,10.0,NE,3.5,-,N/A,,Overcast,40,2013-01-01 11:53:00
6:53 AM,-4.0,-8.0,83,30.37,10.0,Calm,Calm,-,N/A,,Mostly Cloudy,0,2013-01-01 13:53:00
7:53 AM,-5.1,-8.0,87,30.40,10.0,East,6.9,-,N/A,,Clear,80,2013-01-01 14:53:00
8:53 AM,-8.0,-11.0,86,30.47,10.0,WSW,3.5,-,0.00,,Clear,250,2013-01-01 15:53:00
9:53 AM,-5.1,-7.1,91,30.45,10.0,West,3.5,-,N/A,,Mostly Cloudy,270,2013-01-01 16:53:00
10:53 AM,3.9,3.9,100,30.38,10.0,Calm,Calm,-,0.00,,Scattered Clouds,0,2013-01-01 17:53:00
11:53 AM,7.0,3.9,87,30.40,10.0,Calm,Calm,-,N/A,,Overcast,0,2013-01-01 18:53:00
12:53 PM,9.0,3.0,77,30.33,10.0,Calm,Calm,-,N/A,,Clear,0,2013-01-01 19:53:00
1:53 PM,12.9,3.9,67,30.26,10.0,NE,5.8,-,N/A,,Clear,50,2013-01-01 20:53:00
3:53 PM,10.9,1.9,67,30.27,10.0,NE,4.6,-,N/A,,Clear,40,2013-01-01 22:53:00
4:53 PM,7.0,-0.0,73,30.29,10.0,SE,6.9,-,N/A,,Clear,130,2013-01-01 23:53:00
5:53 PM,6.1,1.0,80,30.32,10.0,Calm,Calm,-,N/A,,Clear,0,2013-01-02 00:53:00
6:53 PM,1.0,-2.0,87,30.39,10.0,SE,5.8,-,N/A,,Clear,130,2013-01-02 01:53:00
7:53 PM,3.0,-0.9,84,30.38,10.0,NE,6.9,-,N/A,,Overcast,50,2013-01-02 02:53:00
8:53 PM,6.1,1.0,80,30.39,10.0,ENE,6.9,-,N/A,,Overcast,60,2013-01-02 03:53:00
9:53 PM,7.0,3.0,84,30.38,10.0,SE,8.1,-,0.00,,Overcast,130,2013-01-02 04:53:00
10:53 PM,7.0,3.0,84,30.33,10.0,SSE,4.6,-,N/A,,Overcast,150,2013-01-02 05:53:00
11:53 PM,12.0,5.0,73,30.30,10.0,NNW,9.2,-,N/A,,Overcast,330,2013-01-02 06:53:00